Regional Weather Roundup
Issued by NWS Sterling, VA

Home | Current Version | Previous Version | Graphics & Text | Print | Product List | Glossary On
Versions: 1 2 3 4 5 6 7 8 9 10 11 12 13 14 15 16 17 18 19 20 21 22 23 24 25 26 27 28 29 30 31 32 33 34 35 36 37 38 39 40 41 42 43 44 45 46 47 48 49 50
000
ASUS41 KLWX 011310
RWRLWX

REGIONAL WEATHER ROUNDUP
NATIONAL WEATHER SERVICE BALTIMORE MD/WASHINGTON DC
900 AM EDT WED OCT 01 2014

Note: "FAIR" indicates few or no clouds below 12,000 feet
with no significant weather and/or obstructions to visibility.
 TC=TEMPERATURE CELSIUS

 * =Non NWS site. Station does not report precipitation (e.g. rain,
    snow, etc.), thunder, or fog.

DCZ001-MDZ009-015-VAZ040>042-051-053>054-011400-
WASHINGTON METRO

CITY           SKY/WX    TMP DP  RH WIND       PRES   REMARKS
WASHINGTON NAT CLOUDY    67  61  81 E8        30.02R
DULLES         CLOUDY    63  61  93 E6        30.03R
ANDREWS AFB    LGT RAIN  63  63 100 NE7       30.02R
QUANTICO       CLOUDY    65  62  90 N8        30.02R
COLLEGE PARK*  PTSUNNY   64  63  94 CALM      30.02R
LEESBURG*      CLOUDY    63  63 100 NE3       30.04R FOG
MANASSAS*      CLOUDY    64  63  94 MISG      30.02R
GAITHERSBURG*  PTSUNNY   63  61  94 NE5       30.06R

$$

MDZ006>007-011-014-011400-
BALTIMORE METRO

CITY           SKY/WX    TMP DP  RH WIND       PRES   REMARKS
BWI AIRPORT    CLOUDY    64  61  90 NE9       30.02R
MD SCIENCE CTR   N/A     64  60  87 MISG      30.04R
MARTIN STATE   SUNNY     64  63  94 CALM      30.04R
ANNAPOLIS      CLOUDY    65  60  84 MISG      30.02R
FORT MEADE*    CLOUDY    63  59  88 CALM      30.04R

$$

MDZ012-015-019>023-011400-
MARYLAND EASTERN SHORE

CITY           SKY/WX    TMP DP  RH WIND       PRES   REMARKS
OCEAN CITY     LGT RAIN N/A N/A N/A MISG      29.98R
SALISBURY      CLOUDY    67  63  87 N7        29.99R
BAY BRIDGE AP*   N/A     64  61  88 NE5       30.02R
CAMBRIDGE*     CLOUDY    64  61  88 CALM      30.00R
EASTON*        CLOUDY    64  64 100 NE8       30.05R

$$

MDZ017>025-011400-
SOUTHERN MARYLAND

CITY           SKY/WX    TMP DP  RH WIND       PRES   REMARKS
PATUXENT RIVER CLOUDY    65  60  84 NE7       30.01R
ST INIGOES     CLOUDY    64  60  87 NE5       29.99S
LEONARDTOWN*   CLOUDY    64  61  88 NE3       30.02R

$$

MDZ003>005-011400-
NORTH CENTRAL MARYLAND

CITY           SKY/WX    TMP DP  RH WIND       PRES   REMARKS
FREDERICK*     CLOUDY    64  63  94 VRB3      30.05R FOG
HAGERSTOWN APT CLOUDY    63  60  90 N5        30.03R FOG
WESTMINSTER*   PTSUNNY   61  59  94 E3        30.04R FOG

$$

MDZ501>502-011400-
WESTERN MARYLAND

CITY           SKY/WX    TMP DP  RH WIND       PRES   REMARKS
OAKLAND*       FOG       50 N/A N/A SE8       30.05R VSB<1/4
CUMBERLAND*    CLOUDY    61  59  94 CALM      30.07R

$$

VAZ025>031-011400-
SHENANDOAH VALLEY

CITY           SKY/WX    TMP DP  RH WIND       PRES   REMARKS
WINCHESTER*    CLOUDY    63  61  94 NE3       30.03R FOG
STAUNTON*      CLOUDY    61  58  91 CALM      30.05R FOG

$$

WVZ021-048>050-054>055-011400-
EASTERN WEST VIRGINIA PANHANDLE

CITY           SKY/WX    TMP DP  RH WIND       PRES   REMARKS
MARTINSBURG    CLOUDY    61  58  90 NE5       30.03R FOG
PETERSBURG*    CLOUDY   N/A N/A N/A CALM      30.04R FOG

$$

VAZ036>039-050-011400-
CENTRAL FOOTHILLS

CITY           SKY/WX    TMP DP  RH WIND       PRES   REMARKS
CHARLOTTESVILL CLOUDY    63  61  93 CALM      30.02R FOG
ORANGE*        CLOUDY    63  61  94 CALM      30.03R FOG

$$

VAZ055>057-011400-
NORTH AND CENTRAL PIEDMONT

CITY           SKY/WX    TMP DP  RH WIND       PRES   REMARKS
FREDERICKSBRG* PTSUNNY   66  66 100 E5        30.00R
STAFFORD*      CLOUDY    65  65 100 NE3       30.05R

$$

NCZ024-NYZ072-PAZ021-071-VAZ022-071-011400-
OTHER REGIONAL OBSERVATIONS

CITY           SKY/WX    TMP DP  RH WIND       PRES   REMARKS
NEW YORK CITY  CLOUDY    61  57  87 NE6       30.05S
PHILADELPHIA   PTSUNNY   66  58  75 NE8       30.02R
PITTSBURGH     DRZL/FOG  54  54 100 CALM      30.02R VSB 1/16
ROANOKE        MOSUNNY   61  55  81 SW3       30.05R
RICHMOND       PTSUNNY   65  62  90 CALM      30.00R
RALEIGH        FOG       63  61  93 NE3       30.00R VSB 1/2

$$

ANZ530>537-011400-
MARINE OBSERVATIONS

STATION/POSITION TIME  TEMP    WIND        PRES
                       AIR SEA DIR/SP/G
                 (UTC) (F)     (DEG/KT/KT) (MB)
THOMAS PT LIGHT  1300   64 72   60/ 10/ 12 1017.5R
BALT KEY BRIDGE  1300   64      40/  5/  7 1016.7R
COVE POINT       1300   63      50/  6/  7 1016.1R
LEWISETTA        1300   67 72   20/  4/  6 1015.3S
SOLOMONS ISLAND  1300      72                N/A
PINEY POINT      1300           40/  5/  7   N/A

$$



USA.gov is the U.S. government's official web portal to all federal, state and local government web resources and services.